Home   Weather   Windsor   Past weeks
Flag for Canada

Past Weather in Windsor, Ontario, Canada — Yesterday and Last 2 Weeks

Now
66 °F

Overcast.


Feels Like: 66 °F
Forecast: 77 / 67 °F
Wind: 3 mph from Northwest

Location: Windsor Weather Station

Current Time: Sep 16, 2019 at 6:30:26 am

Latest Report: Sep 16, 2019 at 6:00 am


Visibility: 9 mi

Pressure: 30.05 "Hg

Humidity: 88%

Dew Point: 63 °F

Location of WindsorLocation

Past Weather in Windsor — Graph

°F

Windsor Temperature Yesterday

Maximum temperature yesterday: 73 °F (at 5:00 pm)
Minimum temperature yesterday: 55 °F (at 3:00 am)
Average temperature yesterday: 65 °F

High & Low Weather Summary for the Past Weeks

 TemperatureHumidityPressure
High86 °F (Sep 11, 1:00 pm)100% (Sep 2, 9:00 pm)30.30 "Hg (Sep 2, 9:00 pm)
Low54 °F (Sep 5, 5:00 am)50% (Sep 7, 4:00 pm)29.77 "Hg (Sep 4, 12:25 am)
Average67 °F83%30.08 "Hg
* Reported Sep 1 5:00 am — Sep 16 5:00 am, Windsor. Weather by CustomWeather, © 2019

Note: Actual official high and low records may vary slightly from our data, if they occured in-between our weather recording intervals... More about our weather records

Advertising

Windsor Weather History for the Previous 24 Hours

Scroll right to see more
 ConditionsComfort  
Time TempWeatherWind HumidityBarometerVisibility
5:00 am
Mon, Sep 16
64 °FMostly cloudy.No wind94%30.04 "Hg9 mi
4:00 am63 °FPassing clouds.No wind100%30.04 "Hg9 mi
3:00 am63 °FPassing clouds.2 mph100%30.04 "Hg9 mi
2:00 am63 °FPassing clouds.5 mph94%30.04 "Hg9 mi
1:00 am64 °FOvercast.5 mph94%30.05 "Hg9 mi
12:00 am66 °FOvercast.2 mph94%30.06 "Hg9 mi
11:00 pm
Sun, Sep 15
66 °FOvercast.3 mph88%30.06 "Hg9 mi
10:00 pm66 °FPassing clouds.2 mph88%30.06 "Hg9 mi
8:00 pm68 °FPassing clouds.3 mph83%30.06 "Hg9 mi
7:00 pm72 °FOvercast.5 mph78%30.06 "Hg9 mi
6:00 pm72 °FScattered clouds.9 mph73%30.06 "Hg9 mi
5:00 pm73 °FOvercast.9 mph74%30.06 "Hg9 mi
4:00 pm68 °FOvercast.7 mph88%30.09 "Hg9 mi
3:44 pm68 °FOvercast.8 mph88%30.09 "Hg9 mi
3:09 pm68 °FLight rain. Mostly cloudy.12 mph88%30.11 "Hg9 mi
2:36 pm70 °FLight rain. Overcast.10 mph83%30.13 "Hg9 mi
1:00 pm70 °FMostly cloudy.10 mph83%30.14 "Hg9 mi
12:13 pm70 °FOvercast.5 mph83%30.15 "Hg9 mi
12:00 pm68 °FLight rain. More clouds than sun.7 mph88%30.15 "Hg9 mi
11:34 am70 °FLight rain. More clouds than sun.14 mph73%30.16 "Hg9 mi
11:00 am70 °FMostly cloudy.10 mph78%30.16 "Hg9 mi
10:08 am68 °FOvercast.10 mph78%30.16 "Hg9 mi
9:13 am66 °FLight rain. Mostly cloudy.7 mph88%30.17 "Hg9 mi
9:06 am64 °FMostly cloudy.6 mph94%30.17 "Hg9 mi
8:00 am63 °FOvercast.2 mph94%30.15 "Hg9 mi
7:00 am59 °FMostly cloudy.5 mph100%30.16 "Hg9 mi
6:00 am55 °FPassing clouds.3 mph100%30.15 "Hg9 mi
Weather by CustomWeather, © 2019

See weather overview